User: anonymous   Login
Location: Albany
(35.0000°S, 118.0000°E)
Time: 00:15:05
(UTC-04:00)
Language:

SJ-6B - Orbit

View from above orbital plane
View from above orbital plane
View from above satellite
View from above satellite

Ground track
Ground track

The orbit data is extracted from the following two-line orbital elements,

1 28415U 04035C   16121.59742542  .00001421  00000-0  99760-4 0  9994
2 28415  97.7803 141.8150 0054573  80.9403 279.7993 15.05639385636482
Epoch (UTC): 30 April 2016 14:20:17
Eccentricity: 0.0054573
inclination: 97.7803°
perigee height: 512 km
apogee height: 587 km
right ascension of ascending node: 141.8150°
argument of perigee: 80.9403°
revolutions per day: 15.05639385
mean anomaly at epoch: 279.7993°
orbit number at epoch: 63648

The dashed part of the orbit path shows where the satellite is in the earth's shadow,  

DLR